Tracking 28790 objects as of 19-Apr-2024
HD Live streaming from Space Station
objects crossing your sky now

STARLINK-3099

Track STARLINK-3099 now!
10-day predictions
STARLINK-3099 is classified as:


NORAD ID: 49446
Int'l Code: 2021-104AQ
Perigee: 546.0 km
Apogee: 547.9 km
Inclination: 53.2 °
Period: 95.4 minutes
Semi major axis: 6917 km
RCS: Unknown
Launch date: November 13, 2021
Source: United States (US)
Launch site: AIR FORCE EASTERN TEST RANGE (AFETR)
Your satellite tracking list
Your tracking list is empty




NASA's NSSDC Master Catalog

Two Line Element Set (TLE):
1 49446U 21104AQ  24109.05798960 -.00000510  00000-0 -13955-4 0  9990
2 49446  53.2170  69.4814 0001390  95.7540 264.3611 15.08824031134656
Source of the keplerian elements: AFSPC